Weather reports worldwide

Advertisment
Logan Botanic Garden, United Kingdom (99193): temperature & dewpoint: 19.01.2017 01:00:00 - 25.01.2017 01:00:00 (GMT)Logan Botanic Garden, United Kingdom (99193): temperature -20cm: 19.01.2017 01:00:00 - 25.01.2017 01:00:00 (GMT)Logan Botanic Garden, United Kingdom (99193): precipitation: 19.01.2017 01:00:00 - 25.01.2017 01:00:00 (GMT)
Date & Time tt [°C] td [°C] tt -20cm [°C] rr [mm]
25.01.2017 01:00:00 9,6 8,3 - -
25.01.2017 00:00:00 9,6 8,4 - 0,0
24.01.2017 23:00:00 9,6 8,7 - 0,0
24.01.2017 22:00:00 9,5 8,9 - 0,0
24.01.2017 21:00:00 9,3 8,8 - 0,0
24.01.2017 20:00:00 9,4 8,9 - 0,0
24.01.2017 19:00:00 9,4 8,9 - 0,0
24.01.2017 18:00:00 9,4 8,8 - 0,0
24.01.2017 17:00:00 9,4 8,8 - 0,0
24.01.2017 16:00:00 9,3 8,7 - 0,0
24.01.2017 15:00:00 9,5 8,8 - 0,0
24.01.2017 14:00:00 9,6 8,8 - 0,0
24.01.2017 13:00:00 9,4 8,8 - 0,0
24.01.2017 12:00:00 9,3 8,8 - 0,0
24.01.2017 11:00:00 9,1 8,7 - 0,0
24.01.2017 10:00:00 9,0 8,6 - 0,0
24.01.2017 09:00:00 8,8 8,5 6,2 0,0
24.01.2017 08:00:00 8,9 8,3 - 0,2
24.01.2017 07:00:00 8,9 8,2 - 0,0
24.01.2017 06:00:00 8,7 7,8 - 0,4
24.01.2017 05:00:00 8,8 7,5 - 0,4
24.01.2017 04:00:00 9,0 7,5 - 0,0
24.01.2017 03:00:00 8,9 7,3 - 0,0
24.01.2017 02:00:00 8,7 6,8 - 0,0
24.01.2017 01:00:00 8,6 6,8 - 0,0
24.01.2017 00:00:00 8,5 6,3 - 0,0
23.01.2017 23:00:00 8,5 6,0 - 0,0
23.01.2017 22:00:00 8,4 6,3 - 0,0
23.01.2017 21:00:00 8,4 6,4 - 0,0
23.01.2017 20:00:00 8,3 6,6 - 0,0
23.01.2017 19:00:00 8,3 6,9 - 0,0
23.01.2017 18:00:00 8,3 6,6 - 0,0
23.01.2017 17:00:00 8,2 6,7 - 0,0
23.01.2017 16:00:00 8,5 6,9 - 0,0
23.01.2017 15:00:00 8,9 6,7 - 0,0
23.01.2017 14:00:00 9,1 7,0 - 0,0
23.01.2017 13:00:00 8,8 6,9 - 0,0
23.01.2017 12:00:00 8,2 6,9 - 0,0
23.01.2017 11:00:00 7,3 6,1 - 0,0
23.01.2017 10:00:00 5,5 5,0 - 0,0
23.01.2017 09:00:00 4,0 3,7 6,4 0,0
23.01.2017 08:00:00 3,4 3,3 - 0,2
23.01.2017 07:00:00 2,5 2,4 - 0,0
23.01.2017 06:00:00 0,7 0,5 - 0,0
23.01.2017 05:00:00 0,1 -0,2 - 0,0
23.01.2017 04:00:00 0,1 -0,4 - 0,0
23.01.2017 03:00:00 0,3 -0,4 - 0,0
23.01.2017 02:00:00 -0,4 -1,4 - 0,0
23.01.2017 01:00:00 -0,2 -1,7 - 0,0
23.01.2017 00:00:00 0,7 -0,7 - 0,0
22.01.2017 23:00:00 0,2 -1,1 - 0,0
22.01.2017 22:00:00 -0,2 -1,7 - 0,0
22.01.2017 21:00:00 0,7 -1,6 - 0,0
22.01.2017 20:00:00 2,8 -0,9 - 0,0
22.01.2017 19:00:00 3,2 -0,4 - 0,0
22.01.2017 18:00:00 3,9 2,0 - 0,0
22.01.2017 17:00:00 4,1 2,8 - 0,0
22.01.2017 16:00:00 4,8 3,0 - 0,0
22.01.2017 15:00:00 5,0 3,1 - 0,0
22.01.2017 14:00:00 4,9 3,0 - 0,0
22.01.2017 13:00:00 5,3 3,4 - 0,0
22.01.2017 12:00:00 5,1 2,9 - 0,0
22.01.2017 11:00:00 4,5 2,9 - 0,0
22.01.2017 10:00:00 3,6 1,7 - 0,0
22.01.2017 09:00:00 3,6 1,0 6,7 0,0
22.01.2017 08:00:00 2,7 1,4 - 0,0
22.01.2017 07:00:00 3,0 1,4 - 0,0
22.01.2017 06:00:00 4,2 0,1 - 0,0
22.01.2017 05:00:00 3,3 2,0 - 0,0
22.01.2017 04:00:00 3,4 2,6 - 0,0
22.01.2017 03:00:00 3,6 2,7 - 0,4
22.01.2017 02:00:00 3,8 3,1 - 0,0
22.01.2017 01:00:00 3,8 2,9 - 0,4
22.01.2017 00:00:00 4,5 2,8 - 0,0
21.01.2017 23:00:00 5,0 2,3 - 0,0
21.01.2017 22:00:00 5,0 2,1 - 0,0
21.01.2017 21:00:00 5,1 2,1 - 0,0
21.01.2017 20:00:00 4,9 2,0 - 0,0
21.01.2017 19:00:00 4,9 2,0 - 0,0
21.01.2017 18:00:00 4,5 1,9 - 0,0
21.01.2017 17:00:00 4,1 1,6 - 0,0
21.01.2017 16:00:00 4,6 2,3 - 0,0
21.01.2017 15:00:00 5,2 2,7 - 0,0
21.01.2017 14:00:00 6,0 3,0 - 0,0
21.01.2017 13:00:00 6,2 2,4 - 0,0
21.01.2017 12:00:00 6,2 1,8 - 0,0
21.01.2017 11:00:00 6,0 1,2 - 0,0
21.01.2017 10:00:00 5,4 1,9 - 0,0
21.01.2017 09:00:00 5,0 1,5 7,2 0,0
21.01.2017 08:00:00 4,7 1,3 - 0,0
21.01.2017 07:00:00 5,3 0,4 - 0,0
21.01.2017 06:00:00 5,3 1,1 - 0,0
21.01.2017 05:00:00 5,4 2,7 - 0,0
21.01.2017 04:00:00 5,4 2,8 - 0,0
21.01.2017 03:00:00 5,4 2,1 - 0,0
21.01.2017 02:00:00 5,2 1,6 - 0,0
21.01.2017 01:00:00 5,2 2,8 - 0,0
21.01.2017 00:00:00 5,6 3,7 - 0,0
20.01.2017 23:00:00 6,0 4,7 - 0,0
20.01.2017 22:00:00 5,5 3,9 - 0,0
20.01.2017 21:00:00 5,2 0,6 - 0,0
20.01.2017 20:00:00 5,4 1,4 - 0,0
20.01.2017 19:00:00 6,4 3,8 - 0,0
20.01.2017 18:00:00 6,6 4,3 - 0,0
20.01.2017 17:00:00 6,4 4,3 - 0,0
20.01.2017 16:00:00 6,2 3,7 - 0,0
20.01.2017 15:00:00 6,9 3,2 - 0,0
20.01.2017 14:00:00 6,6 4,8 - 0,0
20.01.2017 13:00:00 6,5 4,7 - 0,0
20.01.2017 12:00:00 6,5 5,1 - 0,0
20.01.2017 11:00:00 6,5 5,3 - 0,0
20.01.2017 10:00:00 6,6 5,5 - 0,0
20.01.2017 09:00:00 6,5 5,0 7,7 0,0
20.01.2017 08:00:00 6,6 5,0 - 0,0
20.01.2017 07:00:00 6,7 4,7 - 0,0
20.01.2017 06:00:00 6,6 4,9 - 0,0
20.01.2017 05:00:00 6,6 4,9 - 0,0
20.01.2017 04:00:00 6,6 5,0 - 0,0
20.01.2017 03:00:00 6,3 4,7 - 0,0
20.01.2017 02:00:00 6,4 4,7 - 0,0
20.01.2017 01:00:00 6,3 4,6 - 0,0
20.01.2017 00:00:00 6,2 4,6 - 0,0
19.01.2017 23:00:00 6,1 4,6 - 0,0
19.01.2017 22:00:00 6,2 4,4 - 0,0
19.01.2017 21:00:00 6,3 4,2 - 0,0
19.01.2017 20:00:00 6,3 4,5 - 0,0
19.01.2017 19:00:00 6,3 4,6 - 0,0
19.01.2017 18:00:00 6,4 4,5 - 0,0
19.01.2017 17:00:00 6,6 4,7 - 0,0
19.01.2017 16:00:00 6,7 4,6 - 0,0
19.01.2017 15:00:00 6,8 4,7 - 0,0
19.01.2017 14:00:00 6,9 4,7 - 0,0
19.01.2017 13:00:00 7,1 5,3 - 0,0
19.01.2017 12:00:00 7,2 5,1 - 0,0
19.01.2017 11:00:00 7,3 5,0 - 0,0
19.01.2017 10:00:00 7,4 5,0 - 0,0
19.01.2017 09:00:00 7,4 4,9 7,7 0,0
19.01.2017 08:00:00 7,5 5,0 - 0,0
19.01.2017 07:00:00 7,9 4,8 - 0,0
19.01.2017 06:00:00 8,1 5,1 - 0,0
19.01.2017 05:00:00 8,3 4,5 - 0,0
19.01.2017 04:00:00 8,4 5,8 - 0,0
19.01.2017 03:00:00 7,8 6,0 - 0,0
19.01.2017 02:00:00 8,0 5,6 - 0,0
19.01.2017 01:00:00 8,5 5,2 - 0,0

tt = temperature
td = dewpoint
tt -20cm = temperature -20cm
rr = precipitation

Next stations